Location: ?????
(31.7405°N, 35.1927°E)
Time: 04:01:42
(UTC+00:00)

NOSS 3-3 (A) - Pass Details

Date: 17 February 2020
Orbit: 833 x 1379 km, 63.4° (Epoch: 29 March)

Event Time Altitude Azimuth Distance (km) Brightness Sun altitude
Rises 03:44:22 0° 208° (SSW) 3,368 6.6 -8.2°
Reaches altitude 10° 03:46:45 10° 209° (SSW) 2,454 5.9 -7.7°
Maximum altitude 03:52:22 88° 300° (WNW) 890 3.9 -6.6°
Drops below altitude 10° 03:58:35 10° 29° (NNE) 2,694 6.6 -5.3°
Sets 04:01:17 0° 30° (NNE) 3,721 7.3 -4.7°
